Retour au catalogue

STARLINK-34180

ActifCommunicationsVLEO
NORAD 64081·PAYLOAD·🇺🇸 United States

Lancé May 21, 2025 depuis Cape Canaveral Space Force Station

Loading…

Prochains Passages (prochaines 24 heures)

TLE

FraisSource: CelesTrak SupGP

Époque: Sep 15, 2026, 03:10 UTC

1 64081C 25107T   26258.13243056 -.00059826  00000+0 -21673-2 0  2581
2 64081  43.0016 211.7769 0001356 273.2437  32.3737 15.27601448    15

Suivez STARLINK-34180 en temps réel avec AllMySat

Download on the App Store